VLG17G LEVD-LEBL

Flight info

Callsign VLG17G
Flight time 0h 59m
Altitude 32000
Route NEA N976 DGO N725 ELSAP/N0423F300 N725 LOBAR
Aircraft A320/M-SDE3FGHIRWY/LB1

Departure

Time 2026-05-05 15:55
Airport Valladolid Airport (LEVD)

Arrival

Time 2026-05-05 16:55
Airport Josep Tarradellas Barcelona-El Prat Airport (LEBL)
Time Latitude Longitude Altitude Speed Heading
2026-05-05 15:18 41.70649 -4.84559 2775 ft 0 kts 253°
2026-05-05 15:50 41.70649 -4.84561 2775 ft 0 kts 274°
2026-05-05 15:50 41.70661 -4.84575 2775 ft 4 kts 348°
2026-05-05 15:50 41.70706 -4.84586 2775 ft 9 kts 333°
2026-05-05 15:50 41.70766 -4.84651 2776 ft 10 kts 315°
2026-05-05 15:51 41.70822 -4.84724 2776 ft 12 kts 316°
2026-05-05 15:51 41.70887 -4.84807 2776 ft 13 kts 315°
2026-05-05 15:51 41.70976 -4.84850 2776 ft 14 kts 352°
2026-05-05 15:51 41.71078 -4.84858 2777 ft 14 kts 22°
2026-05-05 15:52 41.71157 -4.84759 2777 ft 17 kts 45°
2026-05-05 15:52 41.71249 -4.84636 2777 ft 20 kts 45°
2026-05-05 15:52 41.71351 -4.84496 2778 ft 22 kts 46°
2026-05-05 15:52 41.71463 -4.84348 2778 ft 22 kts 45°
2026-05-05 15:53 41.71572 -4.84196 2779 ft 22 kts 44°
2026-05-05 15:53 41.71661 -4.84076 2779 ft 8 kts 47°
2026-05-05 15:53 41.71670 -4.84009 2779 ft 4 kts 130°
2026-05-05 15:53 41.71665 -4.84002 2779 ft 1 kts 137°
2026-05-05 15:54 41.71648 -4.83981 2779 ft 4 kts 137°
2026-05-05 15:54 41.71612 -4.83938 2779 ft 8 kts 137°
2026-05-05 15:54 41.71570 -4.83938 2779 ft 4 kts 225°
2026-05-05 15:54 41.71569 -4.83940 2779 ft 0 kts 225°
2026-05-05 15:55 41.71459 -4.84090 2779 ft 59 kts 226°
2026-05-05 15:55 41.70993 -4.84725 2777 ft 128 kts 224°
2026-05-05 15:55 41.70235 -4.85729 2960 ft 167 kts 227°
2026-05-05 15:55 41.69408 -4.86853 3587 ft 172 kts 225°
2026-05-05 15:56 41.68583 -4.87980 4331 ft 173 kts 227°
2026-05-05 15:56 41.67653 -4.88987 4889 ft 183 kts 201°
2026-05-05 15:56 41.66328 -4.88935 5229 ft 203 kts 160°
2026-05-05 15:56 41.65190 -4.87728 5559 ft 222 kts 123°
2026-05-05 15:57 41.64680 -4.85716 5899 ft 242 kts 90°
2026-05-05 15:57 41.65062 -4.83481 6359 ft 253 kts 57°
2026-05-05 15:57 41.66311 -4.81833 6813 ft 262 kts 22°
2026-05-05 15:57 41.68104 -4.81486 7282 ft 269 kts 346°
2026-05-05 15:58 41.69804 -4.82515 8007 ft 271 kts 326°
2026-05-05 15:58 41.71532 -4.83555 8779 ft 279 kts 348°
2026-05-05 15:58 41.73456 -4.83337 9518 ft 290 kts 20°
2026-05-05 15:58 41.75074 -4.81709 10301 ft 300 kts 52°
2026-05-05 15:59 41.75851 -4.79109 11120 ft 307 kts 82°
2026-05-05 15:59 41.75984 -4.76192 11542 ft 326 kts 84°
2026-05-05 15:59 41.76470 -4.73184 11928 ft 340 kts 69°
2026-05-05 15:59 41.77312 -4.70213 12812 ft 340 kts 65°
2026-05-05 16:00 41.78276 -4.67340 13668 ft 340 kts 62°
2026-05-05 16:00 41.79347 -4.64522 14416 ft 343 kts 59°
2026-05-05 16:00 41.80499 -4.61706 15126 ft 347 kts 58°
2026-05-05 16:00 41.81689 -4.58909 15822 ft 351 kts 57°
2026-05-05 16:01 41.82914 -4.56094 16511 ft 354 kts 57°
2026-05-05 16:01 41.84178 -4.53216 17189 ft 358 kts 57°
2026-05-05 16:01 41.85438 -4.50363 17839 ft 361 kts 57°
2026-05-05 16:01 41.86736 -4.47428 18476 ft 365 kts 56°
2026-05-05 16:02 41.88036 -4.44487 19091 ft 369 kts 56°
2026-05-05 16:02 41.89337 -4.41542 19695 ft 372 kts 56°
2026-05-05 16:02 41.90657 -4.38553 20300 ft 376 kts 56°
2026-05-05 16:02 41.91999 -4.35512 20896 ft 379 kts 56°
2026-05-05 16:03 41.93353 -4.32439 21483 ft 383 kts 57°
2026-05-05 16:03 41.94713 -4.29350 22072 ft 386 kts 57°
2026-05-05 16:03 41.96074 -4.26255 22627 ft 388 kts 56°
2026-05-05 16:03 41.97442 -4.23140 23166 ft 391 kts 56°
2026-05-05 16:04 41.98825 -4.19989 23701 ft 395 kts 57°
2026-05-05 16:04 42.00229 -4.16786 24216 ft 398 kts 56°
2026-05-05 16:04 42.01630 -4.13588 24649 ft 402 kts 57°
2026-05-05 16:04 42.02994 -4.10304 25047 ft 407 kts 60°
2026-05-05 16:05 42.04244 -4.06898 25438 ft 411 kts 61°
2026-05-05 16:05 42.05476 -4.03423 25814 ft 414 kts 62°
2026-05-05 16:05 42.06720 -3.99886 26171 ft 418 kts 62°
2026-05-05 16:05 42.07969 -3.96332 26535 ft 421 kts 62°
2026-05-05 16:06 42.09215 -3.92786 26869 ft 424 kts 62°
2026-05-05 16:06 42.10482 -3.89179 27182 ft 429 kts 62°
2026-05-05 16:06 42.11757 -3.85547 27489 ft 433 kts 62°
2026-05-05 16:06 42.13048 -3.81867 27804 ft 436 kts 62°
2026-05-05 16:07 42.14343 -3.78173 28126 ft 439 kts 62°
2026-05-05 16:07 42.15657 -3.74415 28415 ft 443 kts 62°
2026-05-05 16:07 42.16967 -3.70669 28693 ft 446 kts 62°
2026-05-05 16:07 42.18285 -3.66891 28984 ft 449 kts 62°
2026-05-05 16:08 42.19609 -3.63090 29257 ft 453 kts 62°
2026-05-05 16:08 42.20956 -3.59217 29534 ft 456 kts 62°
2026-05-05 16:08 42.22301 -3.55346 29800 ft 459 kts 62°
2026-05-05 16:08 42.23654 -3.51445 30061 ft 461 kts 62°
2026-05-05 16:09 42.25013 -3.47521 30307 ft 465 kts 62°
2026-05-05 16:09 42.26387 -3.43551 30561 ft 468 kts 62°
2026-05-05 16:09 42.27756 -3.39590 30845 ft 470 kts 62°
2026-05-05 16:09 42.29135 -3.35593 31138 ft 471 kts 62°
2026-05-05 16:10 42.30522 -3.31567 31486 ft 471 kts 63°
2026-05-05 16:10 42.31896 -3.27570 31791 ft 472 kts 63°
2026-05-05 16:10 42.33276 -3.23549 31945 ft 474 kts 63°
2026-05-05 16:11 42.36047 -3.15459 31972 ft 475 kts 63°
2026-05-05 16:12 42.41549 -2.99296 31957 ft 475 kts 65°
2026-05-05 16:12 42.43454 -2.90744 31940 ft 477 kts 80°
2026-05-05 16:13 42.43213 -2.77443 31964 ft 475 kts 104°
2026-05-05 16:13 42.41476 -2.68836 31965 ft 475 kts 108°
2026-05-05 16:14 42.37849 -2.51728 31963 ft 475 kts 107°
2026-05-05 16:15 42.34264 -2.34554 31976 ft 475 kts 108°
2026-05-05 16:16 42.30667 -2.17442 31941 ft 474 kts 109°
2026-05-05 16:17 42.27953 -2.04637 31983 ft 475 kts 109°
2026-05-05 16:18 42.25219 -1.91792 31980 ft 475 kts 109°
2026-05-05 16:19 42.22477 -1.79008 31978 ft 475 kts 109°
2026-05-05 16:19 42.19708 -1.66184 31956 ft 475 kts 109°
2026-05-05 16:20 42.16002 -1.49158 31945 ft 475 kts 109°
2026-05-05 16:22 42.11326 -1.27868 31929 ft 475 kts 110°
2026-05-05 16:23 42.07545 -1.10767 31924 ft 475 kts 110°
2026-05-05 16:23 42.04723 -0.98075 31917 ft 475 kts 110°
2026-05-05 16:24 42.02817 -0.89560 31911 ft 475 kts 110°
2026-05-05 16:25 41.99952 -0.76824 31914 ft 476 kts 110°
2026-05-05 16:25 41.97068 -0.64094 31920 ft 477 kts 111°
2026-05-05 16:26 41.93178 -0.47064 31916 ft 477 kts 111°
2026-05-05 16:27 41.91237 -0.38611 31910 ft 477 kts 111°
2026-05-05 16:27 41.89278 -0.30094 31833 ft 477 kts 112°
2026-05-05 16:28 41.88384 -0.26205 31573 ft 478 kts 112°
2026-05-05 16:28 41.87384 -0.21863 31269 ft 477 kts 112°
2026-05-05 16:28 41.86410 -0.17646 30974 ft 474 kts 112°
2026-05-05 16:28 41.85435 -0.13434 30674 ft 471 kts 112°
2026-05-05 16:29 41.84473 -0.09291 30388 ft 470 kts 113°
2026-05-05 16:29 41.83505 -0.05132 30094 ft 467 kts 113°
2026-05-05 16:29 41.82529 -0.00953 29802 ft 464 kts 113°
2026-05-05 16:29 41.81569 0.03152 29508 ft 462 kts 113°
2026-05-05 16:30 41.80605 0.07249 29211 ft 460 kts 113°
2026-05-05 16:30 41.79659 0.11285 28953 ft 456 kts 113°
2026-05-05 16:30 41.77750 0.19405 28496 ft 454 kts 113°
2026-05-05 16:31 41.76812 0.23378 28058 ft 451 kts 113°
2026-05-05 16:31 41.75870 0.27361 27619 ft 447 kts 112°
2026-05-05 16:31 41.75028 0.31345 27159 ft 447 kts 109°
2026-05-05 16:31 41.74376 0.35388 26719 ft 445 kts 105°
2026-05-05 16:32 41.73866 0.39503 26265 ft 442 kts 104°
2026-05-05 16:32 41.73394 0.43524 25810 ft 438 kts 104°
2026-05-05 16:32 41.72923 0.47521 25342 ft 434 kts 104°
2026-05-05 16:32 41.72454 0.51490 24850 ft 432 kts 104°
2026-05-05 16:33 41.71986 0.55389 24365 ft 428 kts 104°
2026-05-05 16:33 41.71512 0.59326 23876 ft 424 kts 104°
2026-05-05 16:33 41.71040 0.63191 23363 ft 420 kts 104°
2026-05-05 16:33 41.70583 0.66909 22873 ft 416 kts 104°
2026-05-05 16:34 41.70119 0.70700 22355 ft 412 kts 104°
2026-05-05 16:34 41.69674 0.74311 21853 ft 409 kts 104°
2026-05-05 16:34 41.69211 0.78046 21357 ft 406 kts 104°
2026-05-05 16:34 41.68753 0.81769 20850 ft 402 kts 104°
2026-05-05 16:35 41.68296 0.85454 20345 ft 398 kts 104°
2026-05-05 16:35 41.67843 0.89071 19853 ft 395 kts 103°
2026-05-05 16:35 41.67394 0.92674 19357 ft 391 kts 103°
2026-05-05 16:35 41.66945 0.96247 18858 ft 388 kts 102°
2026-05-05 16:36 41.66503 0.99770 18367 ft 385 kts 102°
2026-05-05 16:36 41.66063 1.03291 17873 ft 382 kts 102°
2026-05-05 16:36 41.65626 1.06770 17372 ft 379 kts 102°
2026-05-05 16:36 41.65194 1.10208 16886 ft 376 kts 102°
2026-05-05 16:37 41.64761 1.13638 16397 ft 373 kts 102°
2026-05-05 16:37 41.64333 1.17043 15990 ft 368 kts 102°
2026-05-05 16:37 41.63905 1.20426 15900 ft 365 kts 102°
2026-05-05 16:37 41.63480 1.23770 15899 ft 365 kts 102°
2026-05-05 16:38 41.63057 1.27091 15898 ft 365 kts 102°
2026-05-05 16:38 41.62634 1.30412 15886 ft 364 kts 103°
2026-05-05 16:38 41.62207 1.33738 15611 ft 360 kts 102°
2026-05-05 16:38 41.61782 1.37035 15075 ft 360 kts 102°
2026-05-05 16:39 41.61359 1.40303 14614 ft 358 kts 102°
2026-05-05 16:39 41.60937 1.43571 14168 ft 356 kts 102°
2026-05-05 16:39 41.60516 1.46819 13715 ft 353 kts 102°
2026-05-05 16:39 41.60098 1.50029 13275 ft 351 kts 102°
2026-05-05 16:40 41.59683 1.53221 12841 ft 348 kts 102°
2026-05-05 16:40 41.59266 1.56418 12399 ft 345 kts 102°
2026-05-05 16:40 41.58860 1.59523 11953 ft 342 kts 101°
2026-05-05 16:40 41.58453 1.62633 11497 ft 340 kts 101°
2026-05-05 16:41 41.58041 1.65769 11027 ft 337 kts 102°
2026-05-05 16:41 41.57644 1.68791 10593 ft 334 kts 102°
2026-05-05 16:41 41.57240 1.71859 10224 ft 329 kts 102°
2026-05-05 16:41 41.56850 1.74810 9788 ft 327 kts 102°
2026-05-05 16:42 41.56454 1.77792 9315 ft 325 kts 102°
2026-05-05 16:42 41.56065 1.80726 9102 ft 314 kts 101°
2026-05-05 16:42 41.55686 1.83576 8914 ft 304 kts 101°
2026-05-05 16:42 41.55323 1.86307 8667 ft 297 kts 102°
2026-05-05 16:43 41.54959 1.89033 8302 ft 295 kts 101°
2026-05-05 16:43 41.54600 1.91713 7963 ft 291 kts 101°
2026-05-05 16:43 41.54241 1.94363 7894 ft 292 kts 102°
2026-05-05 16:43 41.53884 1.97024 7891 ft 293 kts 101°
2026-05-05 16:44 41.53518 1.99744 7886 ft 293 kts 101°
2026-05-05 16:44 41.53157 2.02408 7889 ft 294 kts 102°
2026-05-05 16:44 41.52794 2.05090 7758 ft 289 kts 101°
2026-05-05 16:44 41.52436 2.07735 7346 ft 290 kts 101°
2026-05-05 16:45 41.52129 2.10408 6921 ft 291 kts 96°
2026-05-05 16:45 41.52047 2.13091 6563 ft 289 kts 89°
2026-05-05 16:45 41.52107 2.15758 6197 ft 287 kts 88°
2026-05-05 16:45 41.52191 2.18400 5854 ft 285 kts 88°
2026-05-05 16:46 41.52275 2.21036 5506 ft 283 kts 89°
2026-05-05 16:46 41.52058 2.23609 5122 ft 279 kts 114°
2026-05-05 16:46 41.50888 2.25588 4881 ft 270 kts 147°
2026-05-05 16:46 41.49301 2.26855 4631 ft 266 kts 152°
2026-05-05 16:47 41.47695 2.28109 4207 ft 269 kts 147°
2026-05-05 16:47 41.46415 2.29919 3799 ft 272 kts 118°
2026-05-05 16:47 41.45921 2.32333 3466 ft 272 kts 92°
2026-05-05 16:47 41.46246 2.34796 3121 ft 270 kts 68°
2026-05-05 16:48 41.47010 2.37060 2982 ft 269 kts 68°
2026-05-05 16:48 41.47327 2.39479 2958 ft 268 kts 99°
2026-05-05 16:48 41.46592 2.41656 2949 ft 252 kts 135°
2026-05-05 16:48 41.45088 2.42794 2964 ft 249 kts 171°
2026-05-05 16:49 41.43406 2.42542 2960 ft 245 kts 207°
2026-05-05 16:49 41.42032 2.41183 2969 ft 244 kts 223°
2026-05-05 16:49 41.40840 2.39568 2964 ft 244 kts 230°
2026-05-05 16:49 41.39885 2.37684 2967 ft 245 kts 240°
2026-05-05 16:50 41.39161 2.35623 2966 ft 242 kts 246°
2026-05-05 16:50 41.38534 2.33618 2960 ft 227 kts 246°
2026-05-05 16:50 41.37924 2.31730 2952 ft 213 kts 245°
2026-05-05 16:50 41.37334 2.29978 2944 ft 198 kts 245°
2026-05-05 16:51 41.36792 2.28408 2910 ft 183 kts 244°
2026-05-05 16:51 41.36265 2.26890 2658 ft 179 kts 244°
2026-05-05 16:51 41.35745 2.25396 2424 ft 173 kts 244°
2026-05-05 16:51 41.35249 2.23965 2193 ft 167 kts 245°
2026-05-05 16:52 41.34771 2.22584 1958 ft 161 kts 244°
2026-05-05 16:52 41.34318 2.21270 1730 ft 151 kts 244°
2026-05-05 16:52 41.33897 2.20047 1508 ft 141 kts 243°
2026-05-05 16:52 41.33482 2.18860 1321 ft 142 kts 243°
2026-05-05 16:53 41.33064 2.17657 1164 ft 142 kts 244°
2026-05-05 16:53 41.32666 2.16455 1003 ft 142 kts 243°
2026-05-05 16:53 41.32248 2.15242 805 ft 141 kts 243°
2026-05-05 16:53 41.31839 2.14062 632 ft 141 kts 243°
2026-05-05 16:54 41.31427 2.12852 453 ft 146 kts 244°
2026-05-05 16:54 41.31008 2.11624 234 ft 142 kts 244°
2026-05-05 16:54 41.30600 2.10450 81 ft 140 kts 244°
2026-05-05 16:54 41.30213 2.09330 25 ft 114 kts 246°
2026-05-05 16:55 41.29967 2.08672 24 ft 42 kts 229°
2026-05-05 16:55 41.29838 2.08540 24 ft 4 kts 212°
2026-05-05 16:55 41.29837 2.08539 24 ft 0 kts 212°
2026-05-05 16:55 41.29824 2.08529 24 ft 3 kts 212°
2026-05-05 16:56 41.29795 2.08505 24 ft 6 kts 212°
2026-05-05 16:56 41.29750 2.08468 24 ft 8 kts 211°
2026-05-05 16:56 41.29711 2.08402 24 ft 10 kts 244°
2026-05-05 16:56 41.29678 2.08310 24 ft 11 kts 245°
2026-05-05 16:57 41.29644 2.08207 24 ft 11 kts 245°
2026-05-05 16:57 41.29613 2.08120 24 ft 8 kts 245°
2026-05-05 16:57 41.29585 2.08040 24 ft 10 kts 246°